Weather History for LEPA - April, 2014

Change the Weather History Date:

Sunday, April 6, 2014

  Actual Average Record
Temperature  
Mean Temperature 57 °F -  
Max Temperature 69 °F 67 °F - (-1)
Min Temperature 45 °F 47 °F - (-1)
Degree Days  
Heating Degree Days 8    
Growing Degree Days 7 (Base 50)    
Moisture  
Dew Point 52 °F    
Average Humidity 81    
Maximum Humidity 100    
Minimum Humidity 49    
Precipitation  
Precipitation 0.00 in 0.05 in - ()
Sea Level Pressure  
Sea Level Pressure 30.10 in    
Wind  
Wind Speed 4 mph ()    
Max Wind Speed 14 mph    
Max Gust Speed -    
Visibility 8.1 miles    
Events Fog    
Averages and records for this station are not official NWS values.
T = Trace of Precipitation, MM = Missing Value Source: Averaged Metar Reports

Daily Weather History Graph

Daily Weather History Graph

Search for Another Location

Airport or City:

Trip Planner

Search our weather history database for the weather conditions in past years. The results will help you decide how hot, cold, wet, or windy it might be!

Date:

Astronomy

Apr. 06, 2014 Rise Set
Actual Time 7:25 AM CEST 8:17 PM CEST
Civil Twilight 6:58 AM CEST 8:45 PM CEST
Nautical Twilight 6:26 AM CEST 9:17 PM CEST
Astronomical Twilight 5:52 AM CEST 9:51 PM CEST
Moon 12:13 PM CEST (4/6) 2:01 AM CEST (4/6)
Length of Visible Light 13h 46m
Length of Day
12h 51m
Waxing Crescent, 41% of the Moon is Illuminated
Apr 6
Waxing Crescent
Apr 7
First Quarter
Apr 15
Full
Apr 22
Last Quarter
Apr 29
New

Hourly Weather History & Observations

Time (CEST) Temp. Windchill Dew Point Humidity Pressure Visibility Wind Dir Wind Speed Gust Speed Precip Events Conditions
12:00 AM 51 °F - 47 °F 83% 30.10 in - NE 2.3 mph - -  
12:00 AM 51.8 °F - 46.4 °F 82% 30.09 in - Variable 1.2 mph - N/A   Clear
12:30 AM 50.0 °F - 46.4 °F 87% 30.09 in - NNE 2.3 mph - N/A   Clear
1:00 AM 50 °F - 48 °F 90% 30.11 in - ESE 3.5 mph - -  
1:00 AM 50.0 °F - 48.2 °F 94% 30.09 in - Variable 2.3 mph - N/A   Clear
1:30 AM 50.0 °F - 48.2 °F 94% 30.09 in - Calm Calm - N/A   Clear
2:00 AM 50 °F - 48 °F 89% 30.10 in 11 mi NNE 2.3 mph - -   Partly Cloudy
2:00 AM 50.0 °F - 48.2 °F 94% 30.09 in - NNE 2.3 mph - N/A   Clear
2:30 AM 50.0 °F - 48.2 °F 94% 30.09 in - NE 2.3 mph - N/A   Clear
3:00 AM 50.0 °F - 46.4 °F 87% 30.06 in - Calm Calm - N/A   Clear
3:30 AM 48.2 °F - 46.4 °F 93% 30.06 in - NNE 1.2 mph - N/A   Clear
4:00 AM 48.2 °F - 48.2 °F 100% 30.06 in - NNE 1.2 mph - N/A   Clear
4:30 AM 48.2 °F - 46.4 °F 93% 30.06 in - ENE 1.2 mph - N/A   Clear
5:00 AM 47 °F - 45 °F 91% 30.07 in 11 mi NE 1.2 mph - -   Scattered Clouds
5:00 AM 48.2 °F - 44.6 °F 87% 30.06 in - East 2.3 mph - N/A   Clear
5:30 AM 48.2 °F - 46.4 °F 93% 30.06 in - Variable 1.2 mph - N/A   Clear
6:00 AM 47 °F - 46 °F 93% 30.07 in - Calm Calm - -  
6:00 AM 48.2 °F - 46.4 °F 93% 30.06 in - Calm Calm - N/A   Clear
6:30 AM 48.2 °F - 48.2 °F 100% 30.06 in - Calm Calm - N/A   Clear
7:00 AM 46 °F - 44 °F 90% 30.08 in - ENE 4.6 mph - -  
7:00 AM 46.4 °F 44.3 °F 44.6 °F 93% 30.06 in - NE 4.6 mph - N/A   Clear
7:30 AM 46.4 °F - 44.6 °F 93% 30.06 in - Variable 1.2 mph - N/A   Clear
8:00 AM 48 °F - 46 °F 88% 30.09 in 19 mi NW 2.3 mph - -   Scattered Clouds
8:00 AM 48.2 °F - 46.4 °F 93% 30.06 in - Calm Calm - N/A   Clear
8:30 AM 51.8 °F - 50.0 °F 94% 30.09 in - Variable 1.2 mph - N/A   Clear
9:00 AM 55 °F - 49 °F 73% 30.09 in - East 2.3 mph - -  
9:00 AM 55.4 °F - 50.0 °F 82% 30.09 in 6.2 mi Calm Calm - N/A   Partly Cloudy
9:30 AM 57.2 °F - 51.8 °F 82% 30.09 in 6.2 mi East 1.2 mph - N/A   Partly Cloudy
10:00 AM 61 °F - 51 °F 62% 30.10 in - Calm Calm - -  
10:00 AM 60.8 °F - 51.8 °F 72% 30.09 in 6.2 mi Calm Calm - N/A   Partly Cloudy
10:30 AM 64.4 °F - 53.6 °F 68% 30.09 in - Variable 2.3 mph - N/A   Clear
11:00 AM 67 °F - 52 °F 49% 30.12 in 19 mi SW 2.3 mph - -   Scattered Clouds
11:00 AM 66.2 °F - 51.8 °F 60% 30.09 in - West 2.3 mph - N/A   Clear
11:30 AM 68.0 °F - 53.6 °F 60% 30.09 in - WSW 3.5 mph - N/A   Clear
12:00 PM 67 °F - 55 °F 56% 30.13 in - WSW 8.1 mph - -  
12:00 PM 66.2 °F - 55.4 °F 68% 30.12 in - SW 6.9 mph - N/A   Clear
12:30 PM 64.4 °F - 55.4 °F 73% 30.12 in 6.2 mi WSW 8.1 mph - N/A   Partly Cloudy
1:00 PM 67 °F - 58 °F 64% 30.13 in - SW 6.9 mph - -  
1:00 PM 66.2 °F - 57.2 °F 73% 30.12 in 6.2 mi WSW 5.8 mph - N/A   Partly Cloudy
1:30 PM 66.2 °F - 59.0 °F 78% 30.12 in 6.2 mi SW 8.1 mph - N/A   Partly Cloudy
2:00 PM 68 °F - 57 °F 60% 30.12 in 19 mi SW 13.8 mph - -   Scattered Clouds
2:00 PM 66.2 °F - 57.2 °F 73% 30.12 in 6.2 mi WSW 10.4 mph - N/A   Partly Cloudy
2:30 PM 66.2 °F - 57.2 °F 73% 30.12 in 6.2 mi SW 11.5 mph - N/A   Partly Cloudy
3:00 PM 68 °F - 57 °F 59% 30.12 in - WSW 11.5 mph - -  
3:00 PM 66.2 °F - 57.2 °F 73% 30.12 in 6.2 mi SW 9.2 mph - N/A   Partly Cloudy
3:30 PM 68.0 °F - 55.4 °F 64% 30.09 in 6.2 mi SW 9.2 mph - N/A   Partly Cloudy
4:00 PM 69 °F - 55 °F 51% 30.10 in - SW 12.7 mph - -  
4:00 PM 68.0 °F - 55.4 °F 64% 30.09 in 6.2 mi SW 9.2 mph - N/A   Partly Cloudy
4:30 PM 68.0 °F - 53.6 °F 60% 30.09 in 6.2 mi SW 11.5 mph - N/A   Partly Cloudy
5:00 PM 68 °F - 55 °F 53% 30.09 in 17 mi WSW 10.4 mph - -   Scattered Clouds
5:00 PM 66.2 °F - 57.2 °F 73% 30.09 in 6.2 mi SW 10.4 mph - N/A   Partly Cloudy
5:30 PM 66.2 °F - 55.4 °F 68% 30.09 in 6.2 mi WSW 10.4 mph - N/A   Partly Cloudy
5:35 PM 66.2 °F - 57.2 °F 73% 30.09 in 6.2 mi WSW 10.4 mph - N/A Fog Partly Cloudy
6:00 PM 65 °F - 58 °F 73% 30.10 in - WSW 12.7 mph - -  
6:00 PM 64.4 °F - 57.2 °F 77% 30.09 in 6.2 mi WSW 11.5 mph - N/A Fog Partly Cloudy
6:30 PM 62.6 °F - 57.2 °F 82% 30.09 in 6.2 mi SW 13.8 mph - N/A Fog Partly Cloudy
7:00 PM 62 °F - 58 °F 81% 30.11 in - SW 11.5 mph - -  
7:00 PM 62.6 °F - 57.2 °F 82% 30.09 in 6.2 mi SW 11.5 mph - N/A Fog Partly Cloudy
7:30 PM 60.8 °F - 55.4 °F 82% 30.09 in 6.2 mi WSW 9.2 mph - N/A   Partly Cloudy
8:00 PM 59 °F - 56 °F 88% 30.11 in 11 mi WSW 8.1 mph - -   Partly Cloudy
8:00 PM 59.0 °F - 57.2 °F 94% 30.09 in 6.2 mi WSW 9.2 mph - N/A   Partly Cloudy
8:30 PM 57.2 °F - 55.4 °F 94% 30.09 in 6.2 mi WSW 4.6 mph - N/A   Partly Cloudy
9:00 PM 58 °F - 56 °F 90% 30.12 in - West 2.3 mph - -  
9:00 PM 57.2 °F - 55.4 °F 94% 30.09 in 6.2 mi WSW 5.8 mph - N/A   Partly Cloudy
9:30 PM 57.2 °F - 55.4 °F 94% 30.12 in 6.2 mi WSW 4.6 mph - N/A   Partly Cloudy
10:00 PM 57 °F - 56 °F 94% 30.14 in - West 2.3 mph - -  
10:00 PM 57.2 °F - 55.4 °F 94% 30.12 in 6.2 mi Variable 1.2 mph - N/A   Partly Cloudy
10:30 PM 59.0 °F - 57.2 °F 94% 30.12 in 6.2 mi Calm Calm - N/A   Partly Cloudy
11:00 PM 58 °F - 56 °F 90% 30.15 in 9 mi SSE 2.3 mph - -   Mostly Cloudy
11:00 PM 59.0 °F - 55.4 °F 88% 30.12 in 6.2 mi Variable 1.2 mph - N/A   Mostly Cloudy
11:30 PM 59.0 °F - 55.4 °F 88% 30.12 in 6.2 mi SE 2.3 mph - N/A   Mostly Cloudy